[[{"header":{"parameterUnit":"m.s-1","parameterCategory":1,"la1":30.2991,"la2":30.254,"lo1":-89.0895,"lo2":-89.0444,"dy":0.0017,"dx":0.0017,"nx":28,"ny":28,"refTime":"2023-07-30T21:00:00:Z","depth":0,"parameterNumber":2,"parameterNumberName":"U-component_of_WINDS"},"data":[0,0,0,0,0,0,0,0,0,0,0,0,0,0,0,0,0,0,0,0,0,0,0,0,0,0,0,0,0,0,0,0,0,0,0,0,0,0,0,0,0,0,0,0,0,0,0,0,0,0,0,0,0,0,0,0,0,0,1.017,1.0171,0,1.0334,1.0336,1.0338,1.0422,1.0422,1.0422,1.0422,1.0594,1.0598,1.0603,0,0,0,0,0,0,0,0,0,0,0,0,0,0.9931,0.9935,1.0169,1.0172,1.0174,1.0334,1.0336,1.0339,1.0422,1.0422,1.0422,1.0422,1.0592,1.0598,1.0603,0,0,0,0,0,0,0,0,0,0,0,0,0,1.0059,0.9936,1.0169,1.0234,1.0242,1.0334,1.0336,1.0339,1.0422,1.0422,1.0422,1.0422,1.059,1.0597,1.0604,1.0644,0,0,1.0625,1.0627,0,0,0,0,0,0,0,0,1.0052,1.0068,1.0223,1.023,1.0239,1.0357,1.0315,1.0442,1.0422,1.0353,1.0422,1.0422,1.0515,1.0528,1.0559,1.0652,1.066,1.0625,1.0629,1.0632,1.0634,0,0,0,0,0,0,0,1.0043,1.0061,1.0235,1.0225,1.0235,1.0257,1.0275,1.034,1.0432,1.0359,1.0366,1.0384,1.052,1.0552,1.0564,1.0662,1.0625,1.0631,1.0635,1.0638,1.0799,1.0799,0,0,0,0,0,0,1.0023,1.0053,1.023,1.024,1.0143,1.0261,1.0281,1.0319,1.0432,1.0449,1.0384,1.0387,1.0541,1.0556,1.057,1.0626,1.0632,1.0638,1.0642,1.0799,1.0799,1.0799,0,0,0,0,0,0,1.0017,1.0038,1.0223,1.0148,1.0174,1.0265,1.0307,1.0322,1.0355,1.045,1.0467,1.04,1.0541,1.0561,1.0625,1.0633,1.0642,1.0648,1.0799,1.0799,1.0799,1.0738,0,0,0,0,0,0,1.001,1.0035,1.005,1.0148,1.0177,1.0274,1.0307,1.0326,1.0366,1.0373,1.047,1.0486,1.0543,1.0615,1.0632,1.0643,1.0653,1.0798,1.0799,1.0799,1.0739,1.0736,1.0733,0,0,0,0,0,1.0001,1.0027,1.0051,1.0072,1.0198,1.0274,1.0291,1.0355,1.0367,1.0384,1.0445,1.0483,1.0629,1.0621,1.0641,1.0654,1.0798,1.0799,1.0799,1.0741,1.0737,1.0733,0,0,0,0,0,0,0.9929,1.0041,1.0069,1.0126,1.019,1.0288,1.0312,1.0348,1.0411,1.0414,1.0492,1.0514,1.0572,1.0619,1.0608,1.07,1.0718,1.0722,1.0667,1.0663,1.066,1.0648,1.0659,0,0,0,0,0,0.9919,0.9971,1.0067,1.0108,1.0139,1.0219,1.0255,1.0299,1.0369,1.0396,1.0462,1.0529,1.0591,1.063,1.0691,1.0747,1.077,1.0766,1.0762,1.0759,1.0762,1.0797,1.0797,1.0801,1.0801,1.0801,0,0,0.9901,0.9969,0.9997,1.0096,1.015,1.0203,1.0242,1.0296,1.0336,1.0405,1.047,1.0521,1.0601,1.0661,1.0692,1.0703,1.0766,1.076,1.0756,1.0762,1.0797,1.0797,1.0796,1.0801,1.0801,1.0801,0,0,0.9895,0.995,0.9992,1.0046,1.0127,1.0181,1.0191,1.0284,1.032,1.0386,1.0439,1.0489,1.0593,1.0648,1.069,1.0705,1.0743,1.0723,1.0706,1.0739,1.0739,1.0739,1.0745,1.0747,1.0726,1.0726,1.0726,0,0.9862,0.9943,1.0009,1.006,1.0103,1.0167,1.021,1.026,1.0358,1.0386,1.0398,1.053,1.0588,1.0663,1.0667,1.0698,1.0713,1.0713,1.0733,1.0734,1.0735,1.0742,1.0745,1.0723,1.0723,1.0724,1.0724,0,0.9899,0.9954,0.9978,1.007,1.0116,1.0163,1.0238,1.0276,1.0316,1.0369,1.0436,1.0509,1.0587,1.0608,1.0647,1.0689,1.0694,1.0718,1.0737,1.073,1.0739,1.0742,1.0719,1.072,1.0721,1.0721,0,0,0.9852,0.998,0.9988,1.0031,1.0126,1.0171,1.0222,1.0297,1.0329,1.0395,1.0441,1.0527,1.055,1.0597,1.0644,1.0672,1.0682,1.0694,1.0697,1.069,1.0734,1.0716,1.0718,1.0707,1.0708,1.0709,1.0728,0,0.986,0.9953,1.0014,1.0083,1.0136,1.0197,1.0242,1.0306,1.0356,1.041,1.0467,1.0527,1.0552,1.0581,1.0612,1.0674,1.0692,1.0673,1.0752,1.0754,1.0731,1.0722,1.0703,1.0718,1.0731,1.0732,1.0732,0,0.9882,0.9945,1.0019,1.0109,1.0134,1.0172,1.0247,1.0296,1.0371,1.0406,1.0459,1.0506,1.0564,1.0578,1.0659,1.0645,1.0681,1.0717,1.0719,1.073,1.0743,1.0734,1.0724,1.0726,1.0738,1.0737,1.0737,0,0.9842,0.9945,1.0003,1.0038,1.0145,1.0171,1.0216,1.0291,1.0332,1.0398,1.0426,1.0498,1.0537,1.0592,1.0659,1.0662,1.0734,1.0753,1.0766,1.0765,1.078,1.0778,1.0776,1.08,1.08,1.08,1.08,0,0.9845,0.9888,0.9987,1.0023,1.0073,1.0144,1.0193,1.0244,1.031,1.0358,1.0415,1.0459,1.0543,1.0598,1.065,1.0711,1.0728,1.0759,1.0773,1.0755,1.0751,1.078,1.0781,1.0801,1.0801,1.0801,1.0801,0,0.981,0.9877,0.9945,1.0039,1.0064,1.0098,1.018,1.0218,1.0271,1.0331,1.035,1.0435,1.0502,1.0573,1.0665,1.0701,1.0759,1.0778,1.0734,1.0742,1.0751,1.075,1.0769,1.0776,1.0794,1.0793,1.0793,0,0.9808,0.9842,0.9941,0.9976,1.0021,1.0077,1.012,1.0191,1.0234,1.0321,1.0349,1.0421,1.0482,1.0587,1.0658,1.0729,1.075,1.0752,1.0761,1.0743,1.0752,1.0749,1.0754,1.0749,1.0749,1.0748,1.0748,0,0.9798,0.983,0.9888,0.9959,1.0008,1.0067,1.0129,1.0155,1.0239,1.0284,1.0353,1.04,1.0494,1.0565,1.0645,1.0694,1.0736,1.0744,1.0751,1.0734,1.0707,1.0723,1.0727,1.0744,1.0744,1.0744,1.0745,1.0745,0.978,0.9814,0.9889,0.9953,1.0007,1.0063,1.0103,1.0162,1.022,1.0301,1.034,1.041,1.0485,1.0596,1.0644,1.07,1.0713,1.0722,1.0725,1.0727,1.0723,1.0697,1.0715,1.0715,1.0716,1.0716,1.0716,0,0.9775,0.9826,0.9883,0.9968,1.0018,1.0051,1.0121,1.0162,1.0222,1.0288,1.0346,1.0427,1.0496,1.0572,1.0646,1.0677,1.0698,1.0694,1.0693,1.0704,1.0707,1.0694,1.0676,1.0676,1.0676,1.0676,1.0676,1.0676,0.9778,0.9837,0.9878,0.9965,1.0017,1.0084,1.0122,1.0175,1.0227,1.0314,1.0371,1.042,1.0491,1.057,1.0636,1.0657,1.0682,1.0673,1.0699,1.0701,1.0704,1.0707,1.0695,1.0677,1.0677,1.0692,1.0692,1.0692]},{"header":{"parameterUnit":"m.s-1","parameterCategory":1,"la1":30.2991,"la2":30.254,"lo1":-89.0895,"lo2":-89.0444,"dy":0.0017,"dx":0.0017,"nx":28,"ny":28,"refTime":"2023-07-30T21:00:00:Z","depth":0,"parameterNumber":3,"parameterNumberName":"V-component_of_WINDS"},"data":[0,0,0,0,0,0,0,0,0,0,0,0,0,0,0,0,0,0,0,0,0,0,0,0,0,0,0,0,0,0,0,0,0,0,0,0,0,0,0,0,0,0,0,0,0,0,0,0,0,0,0,0,0,0,0,0,0,0,0.5398,0.5397,0,0.5322,0.5322,0.5321,0.5283,0.5283,0.5283,0.5283,0.5205,0.5203,0.5201,0,0,0,0,0,0,0,0,0,0,0,0,0,0.5506,0.5504,0.5398,0.5397,0.5396,0.5323,0.5321,0.532,0.5283,0.5283,0.5283,0.5283,0.5205,0.5203,0.52,0,0,0,0,0,0,0,0,0,0,0,0,0,0.5447,0.5503,0.5398,0.5368,0.5365,0.5323,0.5321,0.532,0.5283,0.5283,0.5283,0.5283,0.5206,0.5203,0.52,0.5182,0,0,0.5191,0.5189,0,0,0,0,0,0,0,0,0.5451,0.5443,0.5373,0.537,0.5366,0.5312,0.5331,0.5274,0.5283,0.5314,0.5283,0.5283,0.524,0.5234,0.522,0.5178,0.5175,0.519,0.5189,0.5187,0.5186,0,0,0,0,0,0,0,0.5455,0.5446,0.5368,0.5372,0.5368,0.5358,0.5349,0.532,0.5278,0.5311,0.5308,0.53,0.5238,0.5223,0.5218,0.5174,0.5191,0.5188,0.5186,0.5185,0.5109,0.5109,0,0,0,0,0,0,0.5464,0.545,0.537,0.5366,0.5409,0.5356,0.5346,0.5329,0.5278,0.5271,0.53,0.5298,0.5229,0.5222,0.5215,0.5188,0.5187,0.5184,0.5183,0.5109,0.5109,0.5109,0,0,0,0,0,0,0.5466,0.5457,0.5373,0.5407,0.5395,0.5354,0.5335,0.5328,0.5313,0.527,0.5262,0.5293,0.5228,0.522,0.519,0.5185,0.5183,0.518,0.5109,0.5109,0.5109,0.5135,0,0,0,0,0,0,0.547,0.5458,0.5452,0.5407,0.5394,0.535,0.5335,0.5326,0.5308,0.5305,0.5261,0.5254,0.5228,0.5194,0.5187,0.5181,0.5178,0.5109,0.5109,0.5109,0.5134,0.5136,0.5137,0,0,0,0,0,0.5474,0.5463,0.5452,0.5442,0.5385,0.535,0.5342,0.5313,0.5308,0.53,0.5272,0.5255,0.5187,0.5192,0.5183,0.5176,0.511,0.5109,0.5109,0.5134,0.5136,0.5137,0,0,0,0,0,0,0.5508,0.5457,0.5444,0.5418,0.5389,0.5343,0.5333,0.5316,0.5287,0.5286,0.525,0.524,0.5213,0.5191,0.5198,0.5153,0.5146,0.5144,0.5169,0.517,0.5171,0.5176,0.5175,0,0,0,0,0,0.5513,0.5489,0.5445,0.5427,0.5413,0.5375,0.5359,0.5339,0.5307,0.5294,0.5264,0.5233,0.5204,0.5186,0.5157,0.5131,0.512,0.5122,0.5123,0.5124,0.5122,0.5104,0.5104,0.5107,0.5107,0.5107,0,0,0.5523,0.5491,0.5479,0.5433,0.5408,0.5383,0.5365,0.534,0.5321,0.529,0.5259,0.5236,0.5199,0.517,0.5156,0.5151,0.5119,0.5124,0.5125,0.5122,0.5104,0.5103,0.5103,0.5107,0.5107,0.5107,0,0,0.5527,0.5502,0.5482,0.5457,0.5418,0.5393,0.5389,0.5345,0.5328,0.5297,0.5272,0.5248,0.5201,0.5174,0.5154,0.5145,0.5128,0.5137,0.5143,0.5126,0.5126,0.5125,0.512,0.5119,0.5136,0.5136,0.5136,0,0.5543,0.5505,0.5474,0.545,0.5429,0.54,0.5379,0.5355,0.531,0.5296,0.5291,0.5228,0.5201,0.5165,0.5162,0.5148,0.514,0.5142,0.5128,0.5127,0.5127,0.5121,0.5119,0.5137,0.5137,0.5137,0.5137,0,0.5526,0.55,0.5489,0.5444,0.5423,0.5401,0.5365,0.5346,0.5327,0.5302,0.5269,0.5235,0.5198,0.5188,0.517,0.5148,0.5146,0.5135,0.5127,0.5128,0.5122,0.512,0.5139,0.5138,0.5138,0.5138,0,0,0.5551,0.5488,0.5485,0.5463,0.5417,0.5396,0.5371,0.5334,0.5318,0.5287,0.5264,0.5223,0.5212,0.5189,0.5168,0.5153,0.5144,0.5143,0.5142,0.5143,0.5115,0.5122,0.5121,0.5133,0.5132,0.5132,0.5118,0,0.5547,0.5502,0.5472,0.5437,0.5411,0.5382,0.536,0.5328,0.5304,0.5277,0.525,0.522,0.5209,0.5195,0.5179,0.5149,0.5138,0.515,0.5109,0.5108,0.5118,0.5118,0.5126,0.5114,0.5115,0.5115,0.5115,0,0.5537,0.5506,0.5469,0.5423,0.5411,0.5392,0.5354,0.533,0.5293,0.5276,0.525,0.5227,0.5198,0.5193,0.515,0.5159,0.514,0.5123,0.5122,0.5116,0.5111,0.511,0.511,0.5108,0.5111,0.5111,0.5112,0,0.5556,0.5505,0.5475,0.5458,0.5405,0.5392,0.5369,0.5332,0.5311,0.5278,0.5263,0.5228,0.5208,0.518,0.5147,0.5147,0.5107,0.51,0.5091,0.5091,0.5083,0.5084,0.5078,0.5074,0.5074,0.5074,0.5074,0,0.5555,0.5533,0.5483,0.5465,0.5438,0.5403,0.5378,0.5353,0.5319,0.5294,0.5267,0.5244,0.5203,0.5174,0.5149,0.5116,0.5108,0.5092,0.5085,0.5094,0.5096,0.508,0.508,0.5073,0.5073,0.5073,0.5074,0,0.5572,0.5538,0.5503,0.5455,0.5442,0.5425,0.5383,0.5363,0.5336,0.5305,0.5295,0.5253,0.5218,0.5183,0.5136,0.5118,0.5085,0.5077,0.5098,0.5094,0.5086,0.5086,0.5069,0.5064,0.5065,0.5065,0.5065,0,0.5572,0.5554,0.5504,0.5485,0.5462,0.5433,0.5411,0.5375,0.5353,0.5308,0.5293,0.5255,0.5224,0.5168,0.5133,0.5096,0.5085,0.5081,0.5079,0.5088,0.5083,0.5084,0.508,0.5082,0.5083,0.5083,0.5083,0,0.5576,0.5559,0.5529,0.5491,0.5466,0.5435,0.5403,0.5389,0.5346,0.5323,0.5286,0.5261,0.5212,0.5174,0.5133,0.5108,0.5087,0.5084,0.5079,0.5087,0.5099,0.509,0.5099,0.5084,0.5084,0.5084,0.5084,0.5084,0.5583,0.5565,0.5525,0.5491,0.5463,0.5433,0.5412,0.5381,0.535,0.5307,0.5288,0.5251,0.5211,0.5153,0.5128,0.5097,0.5092,0.5087,0.5085,0.5083,0.5084,0.5105,0.509,0.509,0.509,0.509,0.509,0,0.5584,0.5556,0.5526,0.5481,0.5453,0.5437,0.54,0.5378,0.5345,0.5311,0.5279,0.5236,0.5198,0.5159,0.5119,0.5102,0.5091,0.5092,0.5093,0.5087,0.5092,0.5099,0.5101,0.5101,0.5101,0.5101,0.5101,0.5101,0.5581,0.5548,0.5526,0.5478,0.5451,0.5414,0.5394,0.5365,0.5337,0.529,0.5258,0.5233,0.5196,0.5152,0.5117,0.5106,0.5092,0.5095,0.5082,0.5087,0.5087,0.5086,0.5092,0.5093,0.5093,0.5078,0.5078,0.5078]}]]